GW4499 Weather Reports


Display with metric or nautical units.
time (UTC)temp
F
wind
direction
speed
MPH
gust
MPH
rain 1hr
in
rain 24hr
in
rain mn
in
humidity
%
barometer
mb
20260504050519 58 0.0 2.0 0.00 0.00 0.00 35 1013.0
20260504045519 58 0.0 1.0 0.00 0.00 0.00 35 1012.3
20260504044520 59 0.0 1.0 0.00 0.00 0.00 34 1012.7
20260504043519 60 0.0 0.0 0.00 0.00 0.00 32 1012.5
20260504042539 61 0.0 1.0 0.00 0.00 0.00 31 1012.1
20260504041519 61 315 1.0 3.0 0.00 0.00 0.00 31 1012.3
20260504040519 62 0.0 2.0 0.00 0.00 0.00 29 1012.2
20260504035541 63 0.0 1.0 0.00 0.00 0.00 27 1012.2
20260504034519 63 293 1.0 3.0 0.00 0.00 0.00 26 1012.2
20260504033519 63 0.0 2.0 0.00 0.00 0.00 25 1011.7
20260504032519 63 0.0 1.0 0.00 0.00 0.00 25 1011.0
20260504031519 63 0.0 2.0 0.00 0.00 0.00 27 1010.9
20260504030519 62 338 1.0 3.0 0.00 0.00 0.00 31 1010.4
20260504025519 62 0.0 1.0 0.00 0.00 0.00 32 1009.9
20260504024519 62 0.0 2.0 0.00 0.00 0.00 32 1009.8
20260504023519 62 0.0 1.0 0.00 0.00 0.00 33 1009.5
20260504022539 63 0.0 0.0 0.00 0.00 0.00 32 1008.5
20260504021539 64 0.0 0.0 0.00 0.00 0.00 29 1008.8
20260504020519 65 0.0 0.0 0.00 0.00 0.00 28 1008.7
20260504015519 66 0.0 0.0 0.00 0.00 0.00 27 1008.0
20260504014519 67 0.0 0.0 0.00 0.00 0.00 26 1008.2
20260504013519 67 0.0 1.0 0.00 0.00 0.00 25 1008.2
20260504012519 67 0.0 0.0 0.00 0.00 0.00 24 1007.6
20260504011519 68 0.0 0.0 0.00 0.00 0.00 24 1007.7
20260504010518 68 0.0 0.0 0.00 0.00 0.00 23 1007.6
20260504005519 69 0.0 0.0 0.00 0.00 0.00 24 1007.8
20260504004519 70 0.0 0.0 0.00 0.00 0.00 22 1007.8
20260504003519 70 0.0 0.0 0.00 0.00 0.00 21 1007.8
20260504002519 70 0.0 0.0 0.00 0.00 0.00 21 1007.6
20260504001518 70 0.0 0.0 0.00 0.00 0.00 20 1007.6
20260504000519 70 203 1.0 2.0 0.00 0.00 0.00 18 1007.6
20260503235559 71 0.0 1.0 0.00 0.00 0.00 18 1008.0
20260503234518 71 0.0 1.0 0.00 0.00 0.00 18 1008.2
20260503233518 72 0.0 1.0 0.00 0.00 0.00 16 1008.1
20260503232519 72 293 1.0 4.0 0.00 0.00 0.00 15 1008.0
20260503231519 73 315 2.0 9.0 0.00 0.00 0.00 15 1008.2
20260503230519 73 0.0 2.0 0.00 0.00 0.00 15 1008.1
20260503225518 73 0.0 0.0 0.00 0.00 0.00 16 1008.2
20260503224518 73 0.0 2.0 0.00 0.00 0.00 17 1008.2
20260503223539 73 315 1.0 4.0 0.00 0.00 0.00 16 1008.3
20260503222518 73 315 1.0 4.0 0.00 0.00 0.00 17 1008.7
20260503221518 73 315 1.0 4.0 0.00 0.00 0.00 16 1008.9
20260503220518 73 315 1.0 5.0 0.00 0.00 0.00 17 1009.0
20260503215559 73 338 1.0 4.0 0.00 0.00 0.00 17 1009.4
20260503214518 73 315 2.0 5.0 0.00 0.00 0.00 16 1009.4
20260503213518 74 315 1.0 5.0 0.00 0.00 0.00 16 1009.8
20260503212518 74 338 1.0 5.0 0.00 0.00 0.00 15 1010.4
20260503211518 74 0.0 2.0 0.00 0.00 0.00 15 1010.5
20260503210518 74 0 1.0 2.0 0.00 0.00 0.00 15 1010.5
20260503205518 75 315 1.0 6.0 0.00 0.00 0.00 13 1011.0
20260503204518 75 315 1.0 4.0 0.00 0.00 0.00 13 1011.2
20260503203518 75 0.0 3.0 0.00 0.00 0.00 14 1011.5
20260503202518 74 338 1.0 3.0 0.00 0.00 0.00 15 1011.8
20260503201519 75 293 1.0 2.0 0.00 0.00 0.00 15 1012.1
20260503200519 75 270 1.0 4.0 0.00 0.00 0.00 15 1012.3
20260503195601 74 158 1.0 4.0 0.00 0.00 0.00 16 1012.8
20260503194520 73 0.0 2.0 0.00 0.00 0.00 19 1012.6
20260503193520 73 135 1.0 2.0 0.00 0.00 0.00 18 1012.7
20260503192520 73 0.0 3.0 0.00 0.00 0.00 20 1013.2
20260503191520 73 0.0 1.0 0.00 0.00 0.00 18 1013.3
20260503190520 72 0.0 2.0 0.00 0.00 0.00 18 1013.6
20260503185540 72 0.0 1.0 0.00 0.00 0.00 19 1013.3
20260503184520 71 68 1.0 3.0 0.00 0.00 0.00 19 1012.9
20260503183520 72 45 1.0 3.0 0.00 0.00 0.00 21 1013.5
20260503182520 73 135 4.0 8.0 0.00 0.00 0.00 18 1013.4
20260503181520 74 315 1.0 3.0 0.00 0.00 0.00 18 1014.0
20260503180540 73 158 2.0 5.0 0.00 0.00 0.00 18 1014.1
20260503175540 74 338 1.0 4.0 0.00 0.00 0.00 15 1013.9
20260503174520 75 315 4.0 9.0 0.00 0.00 0.00 13 1014.4
20260503173520 76 315 2.0 6.0 0.00 0.00 0.00 14 1014.6
20260503172520 76 315 2.0 6.0 0.00 0.00 0.00 13 1015.0
20260503171520 74 158 1.0 3.0 0.00 0.00 0.00 17 1015.0
20260503170520 74 113 1.0 2.0 0.00 0.00 0.00 19 1015.2
20260503150520 61 68 1.0 3.0 0.00 0.00 0.00 30 1016.0
20260503130520 43 0.0 1.0 0.00 0.00 0.00 61 1015.3
20260503110519 40 0.0 1.0 0.00 0.00 0.00 74 1014.3
20260503081519 47 0.0 0.0 0.00 0.00 0.00 45 1016.5
20260503080520 47 0.0 0.0 0.00 0.00 0.00 44 1016.7
20260503072539 51 0.0 0.0 0.00 0.00 0.00 41 1017.6
20260503071519 52 0.0 0.0 0.00 0.00 0.00 38 1018.1
20260503070539 52 0.0 1.0 0.00 0.00 0.00 35 1018.1